Time,TemperatureF,DewpointF,PressureIn,WindDirection,WindDirectionDegrees,WindSpeedMPH,WindSpeedGustMPH,Humidity,HourlyPrecipIn,Conditions,Clouds,dailyrainin,SoftwareType,DateUTC
2013-04-18 00:01:00,50.9,45.6,30.27,East,92,1.0,1.0,82,0.00,,---,0.00,VWS V14.01,2013-04-18 04:01:00,
2013-04-18 00:07:00,50.7,45.1,30.26,NNW,342,1.0,6.0,81,0.00,,---,0.00,VWS V14.01,2013-04-18 04:07:00,
2013-04-18 00:12:00,50.8,44.9,30.26,South,174,2.0,7.0,80,0.00,,---,0.00,VWS V14.01,2013-04-18 04:12:00,
2013-04-18 00:17:00,51.0,44.7,30.26,ESE,123,3.0,7.0,79,0.00,,---,0.00,VWS V14.01,2013-04-18 04:17:00,
2013-04-18 00:22:00,51.0,45.1,30.26,NNE,19,1.0,7.0,80,0.00,,---,0.00,VWS V14.01,2013-04-18 04:22:00,
2013-04-18 00:27:00,50.8,45.2,30.26,East,94,2.0,7.0,81,0.00,,---,0.00,VWS V14.01,2013-04-18 04:27:00,
2013-04-18 00:32:00,50.7,45.4,30.26,NNE,30,0.0,3.0,82,0.00,,---,0.00,VWS V14.01,2013-04-18 04:32:00,
2013-04-18 00:37:00,50.6,45.6,30.27,NE,51,0.0,3.0,83,0.00,,---,0.00,VWS V14.01,2013-04-18 04:37:00,
2013-04-18 00:42:00,50.5,45.5,30.27,ENE,74,1.0,3.0,83,0.00,,---,0.00,VWS V14.01,2013-04-18 04:42:00,
2013-04-18 00:47:00,50.5,45.5,30.27,ENE,61,1.0,3.0,83,0.00,,---,0.00,VWS V14.01,2013-04-18 04:47:00,
2013-04-18 00:52:00,50.5,45.5,30.27,WSW,246,0.0,3.0,83,0.00,,---,0.00,VWS V14.01,2013-04-18 04:52:00,
2013-04-18 00:57:00,50.4,45.4,30.27,NW,325,0.0,3.0,83,0.00,,---,0.00,VWS V14.01,2013-04-18 04:57:00,
2013-04-18 01:02:00,50.4,45.8,30.27,ESE,110,0.0,3.0,84,0.00,,---,0.00,VWS V14.01,2013-04-18 05:02:00,
2013-04-18 01:07:00,50.3,45.7,30.27,SE,141,3.0,5.0,84,0.00,,---,0.00,VWS V14.01,2013-04-18 05:07:00,
2013-04-18 01:12:00,50.2,45.6,30.27,SE,140,1.0,5.0,84,0.00,,---,0.00,VWS V14.01,2013-04-18 05:12:00,
2013-04-18 01:17:00,50.1,45.8,30.27,SSE,147,1.0,5.0,85,0.00,,---,0.00,VWS V14.01,2013-04-18 05:17:00,
2013-04-18 01:22:00,50.0,45.7,30.26,NE,53,0.0,5.0,85,0.00,,---,0.00,VWS V14.01,2013-04-18 05:22:00,
2013-04-18 01:27:00,50.0,45.7,30.27,ESE,110,1.0,5.0,85,0.00,,---,0.00,VWS V14.01,2013-04-18 05:27:00,
2013-04-18 01:32:00,50.1,45.8,30.26,NE,47,1.0,2.0,85,0.00,,---,0.00,VWS V14.01,2013-04-18 05:32:00,
2013-04-18 01:37:00,50.3,45.7,30.26,ENE,71,1.0,4.0,84,0.00,,---,0.00,VWS V14.01,2013-04-18 05:37:00,
2013-04-18 01:42:00,50.4,45.8,30.26,SE,134,1.0,4.0,84,0.00,,---,0.00,VWS V14.01,2013-04-18 05:42:00,
2013-04-18 01:47:00,50.5,45.8,30.27,East,79,2.0,4.0,84,0.00,,---,0.00,VWS V14.01,2013-04-18 05:47:00,
2013-04-18 01:52:00,50.6,45.6,30.27,NE,35,3.0,4.0,83,0.00,,---,0.00,VWS V14.01,2013-04-18 05:52:00,
2013-04-18 01:57:00,50.8,45.8,30.27,ENE,71,1.0,4.0,83,0.00,,---,0.00,VWS V14.01,2013-04-18 05:57:00,
2013-04-18 02:02:00,50.7,46.0,30.27,ENE,62,4.0,4.0,84,0.00,,---,0.00,VWS V14.01,2013-04-18 06:02:00,
2013-04-18 02:07:00,50.6,46.0,30.27,NNE,21,3.0,5.0,84,0.00,,---,0.00,VWS V14.01,2013-04-18 06:07:00,
2013-04-18 02:12:00,50.6,46.3,30.27,ESE,103,5.0,6.0,85,0.00,,---,0.00,VWS V14.01,2013-04-18 06:12:00,
2013-04-18 02:17:00,50.5,46.2,30.27,NE,41,5.0,6.0,85,0.00,,---,0.00,VWS V14.01,2013-04-18 06:17:00,
2013-04-18 02:22:00,50.5,46.5,30.27,East,80,4.0,6.0,86,0.00,,---,0.00,VWS V14.01,2013-04-18 06:22:00,
2013-04-18 02:27:00,50.6,46.6,30.27,ENE,58,3.0,6.0,86,0.00,,---,0.00,VWS V14.01,2013-04-18 06:27:00,
2013-04-18 02:32:00,50.5,46.5,30.27,NE,37,2.0,3.0,86,0.00,,---,0.00,VWS V14.01,2013-04-18 06:32:00,
2013-04-18 02:37:00,50.4,46.4,30.27,NE,52,2.0,5.0,86,0.00,,---,0.00,VWS V14.01,2013-04-18 06:37:00,
2013-04-18 02:42:00,50.4,46.4,30.27,ESE,109,2.0,5.0,86,0.00,,---,0.00,VWS V14.01,2013-04-18 06:42:00,
2013-04-18 02:47:00,50.4,46.7,30.27,NE,35,4.0,5.0,87,0.00,,---,0.00,VWS V14.01,2013-04-18 06:47:00,
2013-04-18 02:52:00,50.4,46.7,30.26,East,98,5.0,5.0,87,0.00,,---,0.00,VWS V14.01,2013-04-18 06:52:00,
2013-04-18 02:57:00,50.4,46.7,30.26,East,82,3.0,6.0,87,0.00,,---,0.00,VWS V14.01,2013-04-18 06:57:00,
2013-04-18 03:02:00,50.4,47.0,30.26,NE,43,7.0,7.0,88,0.00,,---,0.00,VWS V14.01,2013-04-18 07:02:00,
2013-04-18 03:07:00,50.4,47.0,30.26,ENE,74,4.0,7.0,88,0.00,,---,0.00,VWS V14.01,2013-04-18 07:07:00,
2013-04-18 03:12:00,50.4,47.0,30.26,ENE,63,7.0,7.0,88,0.00,,---,0.00,VWS V14.01,2013-04-18 07:12:00,
2013-04-18 03:17:00,50.4,47.0,30.26,NE,56,7.0,8.0,88,0.00,,---,0.00,VWS V14.01,2013-04-18 07:17:00,
2013-04-18 03:22:00,50.4,47.3,30.26,NE,55,7.0,8.0,89,0.00,,---,0.00,VWS V14.01,2013-04-18 07:22:00,
2013-04-18 03:27:00,50.4,47.3,30.26,NE,56,6.0,8.0,89,0.00,,---,0.00,VWS V14.01,2013-04-18 07:27:00,
2013-04-18 03:32:00,50.4,47.3,30.26,ENE,59,6.0,7.0,89,0.00,,---,0.00,VWS V14.01,2013-04-18 07:32:00,
2013-04-18 03:37:00,50.4,47.3,30.27,NE,44,3.0,7.0,89,0.00,,---,0.00,VWS V14.01,2013-04-18 07:37:00,
2013-04-18 03:42:00,50.4,47.6,30.27,NE,53,5.0,7.0,90,0.00,,---,0.00,VWS V14.01,2013-04-18 07:42:00,
2013-04-18 03:47:00,50.5,47.7,30.26,ENE,68,3.0,7.0,90,0.00,,---,0.00,VWS V14.01,2013-04-18 07:47:00,
2013-04-18 03:52:00,50.5,47.7,30.26,ENE,60,6.0,7.0,90,0.00,,---,0.00,VWS V14.01,2013-04-18 07:52:00,
2013-04-18 03:57:00,50.4,47.6,30.26,NE,44,4.0,8.0,90,0.00,,---,0.00,VWS V14.01,2013-04-18 07:57:00,
2013-04-18 04:02:00,50.4,47.6,30.26,ENE,61,3.0,6.0,90,0.00,,---,0.00,VWS V14.01,2013-04-18 08:02:00,
2013-04-18 04:07:00,50.4,47.6,30.25,NE,44,6.0,8.0,90,0.00,,---,0.00,VWS V14.01,2013-04-18 08:07:00,
2013-04-18 04:12:00,50.4,47.9,30.26,NE,55,8.0,9.0,91,0.00,,---,0.00,VWS V14.01,2013-04-18 08:12:00,
2013-04-18 04:17:00,50.4,47.9,30.26,NE,44,8.0,11.0,91,0.00,,---,0.00,VWS V14.01,2013-04-18 08:17:00,
2013-04-18 04:22:00,50.3,47.8,30.25,NE,54,8.0,11.0,91,0.00,,---,0.00,VWS V14.01,2013-04-18 08:22:00,
2013-04-18 04:27:00,50.2,47.7,30.25,NNE,13,9.0,11.0,91,0.00,,---,0.00,VWS V14.01,2013-04-18 08:27:00,
2013-04-18 04:32:00,50.3,48.1,30.26,NNE,30,6.0,8.0,92,0.00,,---,0.00,VWS V14.01,2013-04-18 08:32:00,
2013-04-18 04:37:00,50.2,48.0,30.26,NE,53,9.0,9.0,92,0.00,,---,0.00,VWS V14.01,2013-04-18 08:37:00,
2013-04-18 04:42:00,50.3,48.1,30.26,ENE,75,8.0,10.0,92,0.00,,---,0.00,VWS V14.01,2013-04-18 08:42:00,
2013-04-18 04:47:00,50.4,48.2,30.26,NNE,21,6.0,11.0,92,0.00,,---,0.00,VWS V14.01,2013-04-18 08:47:00,
2013-04-18 04:52:00,50.6,48.7,30.26,North,359,7.0,11.0,93,0.00,,---,0.00,VWS V14.01,2013-04-18 08:52:00,
2013-04-18 04:57:00,50.6,48.7,30.26,NE,34,7.0,11.0,93,0.00,,---,0.00,VWS V14.01,2013-04-18 08:57:00,
2013-04-18 05:02:00,50.7,48.8,30.26,ENE,58,9.0,10.0,93,0.00,,---,0.00,VWS V14.01,2013-04-18 09:02:00,
2013-04-18 05:07:00,50.7,48.8,30.27,NE,53,5.0,10.0,93,0.00,,---,0.00,VWS V14.01,2013-04-18 09:07:00,
2013-04-18 05:12:00,50.7,49.0,30.27,NE,50,7.0,10.0,94,0.00,,---,0.00,VWS V14.01,2013-04-18 09:12:00,
2013-04-18 05:17:00,50.6,48.9,30.27,ENE,64,8.0,10.0,94,0.00,,---,0.00,VWS V14.01,2013-04-18 09:17:00,
2013-04-18 05:22:00,50.5,48.8,30.27,ENE,62,6.0,10.0,94,0.00,,---,0.00,VWS V14.01,2013-04-18 09:22:00,
2013-04-18 05:27:00,50.4,48.7,30.27,NE,55,6.0,10.0,94,0.00,,---,0.00,VWS V14.01,2013-04-18 09:27:00,
2013-04-18 05:32:00,50.6,49.2,30.27,ENE,62,6.0,7.0,95,0.00,,---,0.00,VWS V14.01,2013-04-18 09:32:00,
2013-04-18 05:37:00,50.7,49.3,30.27,ENE,60,8.0,10.0,95,0.00,,---,0.00,VWS V14.01,2013-04-18 09:37:00,
2013-04-18 05:42:00,50.9,49.5,30.27,ENE,74,9.0,10.0,95,0.00,,---,0.00,VWS V14.01,2013-04-18 09:42:00,
2013-04-18 05:47:00,50.8,49.4,30.27,NE,51,9.0,10.0,95,0.00,,---,0.00,VWS V14.01,2013-04-18 09:47:00,
2013-04-18 05:52:00,50.8,49.4,30.27,NE,53,9.0,10.0,95,0.00,,---,0.00,VWS V14.01,2013-04-18 09:52:00,
2013-04-18 05:57:00,50.8,49.4,30.27,NE,52,8.0,10.0,95,0.00,,---,0.00,VWS V14.01,2013-04-18 09:57:00,
2013-04-18 06:02:00,50.7,49.3,30.27,ENE,75,10.0,11.0,95,0.00,,---,0.00,VWS V14.01,2013-04-18 10:02:00,
2013-04-18 06:07:00,50.7,49.6,30.26,ENE,60,9.0,13.0,96,0.00,,---,0.00,VWS V14.01,2013-04-18 10:07:00,
2013-04-18 06:12:00,50.7,49.6,30.26,NE,46,10.0,13.0,96,0.00,,---,0.00,VWS V14.01,2013-04-18 10:12:00,
2013-04-18 06:17:00,50.5,49.1,30.26,NE,44,10.0,14.0,95,0.00,,---,0.00,VWS V14.01,2013-04-18 10:17:00,
2013-04-18 06:22:00,50.5,49.4,30.26,ENE,58,14.0,14.0,96,0.00,,---,0.00,VWS V14.01,2013-04-18 10:22:00,
2013-04-18 06:27:00,50.5,49.4,30.26,NE,52,11.0,16.0,96,0.00,,---,0.00,VWS V14.01,2013-04-18 10:27:00,
2013-04-18 06:32:00,50.4,49.3,30.26,East,91,10.0,12.0,96,0.00,,---,0.00,VWS V14.01,2013-04-18 10:32:00,
2013-04-18 06:37:00,50.6,49.5,30.26,NE,51,12.0,15.0,96,0.00,,---,0.00,VWS V14.01,2013-04-18 10:37:00,
2013-04-18 06:42:00,50.6,49.5,30.27,NE,46,11.0,16.0,96,0.00,,---,0.00,VWS V14.01,2013-04-18 10:42:00,
2013-04-18 06:47:00,50.7,49.6,30.26,ESE,103,10.0,18.0,96,0.00,,---,0.00,VWS V14.01,2013-04-18 10:47:00,
2013-04-18 06:52:00,50.8,49.7,30.26,NE,43,10.0,18.0,96,0.00,,---,0.00,VWS V14.01,2013-04-18 10:52:00,
2013-04-18 06:57:00,50.9,49.8,30.26,ESE,105,7.0,18.0,96,0.00,,---,0.00,VWS V14.01,2013-04-18 10:57:00,
2013-04-18 07:02:00,50.9,49.8,30.26,North,11,8.0,11.0,96,0.00,,---,0.00,VWS V14.01,2013-04-18 11:02:00,
2013-04-18 07:07:00,51.0,49.9,30.26,North,352,6.0,11.0,96,0.00,,---,0.00,VWS V14.01,2013-04-18 11:07:00,
2013-04-18 07:12:00,51.0,49.6,30.27,NNE,29,7.0,11.0,95,0.00,,---,0.00,VWS V14.01,2013-04-18 11:12:00,
2013-04-18 07:17:00,51.0,49.6,30.27,NNE,21,7.0,11.0,95,0.00,,---,0.00,VWS V14.01,2013-04-18 11:17:00,
2013-04-18 07:22:00,51.1,49.7,30.27,NE,54,8.0,11.0,95,0.00,,---,0.00,VWS V14.01,2013-04-18 11:22:00,
2013-04-18 07:27:00,51.2,50.1,30.27,NE,37,9.0,11.0,96,0.00,,---,0.00,VWS V14.01,2013-04-18 11:27:00,
2013-04-18 07:32:00,51.4,50.3,30.27,NE,44,6.0,11.0,96,0.00,,---,0.00,VWS V14.01,2013-04-18 11:32:00,
2013-04-18 07:37:00,51.4,50.0,30.27,NE,45,8.0,11.0,95,0.00,,---,0.00,VWS V14.01,2013-04-18 11:37:00,
2013-04-18 07:42:00,51.4,50.0,30.27,NE,37,7.0,11.0,95,0.00,,---,0.00,VWS V14.01,2013-04-18 11:42:00,
2013-04-18 07:47:00,51.5,50.1,30.27,ENE,75,6.0,11.0,95,0.00,,---,0.00,VWS V14.01,2013-04-18 11:47:00,
2013-04-18 07:52:00,51.4,50.0,30.28,NE,44,10.0,11.0,95,0.00,,---,0.00,VWS V14.01,2013-04-18 11:52:00,
2013-04-18 07:57:00,51.3,49.9,30.28,NE,44,9.0,11.0,95,0.00,,---,0.00,VWS V14.01,2013-04-18 11:57:00,
2013-04-18 08:02:00,51.2,49.8,30.27,NE,47,12.0,12.0,95,0.00,,---,0.00,VWS V14.01,2013-04-18 12:02:00,
2013-04-18 08:07:00,51.2,49.8,30.27,East,94,7.0,12.0,95,0.00,,---,0.00,VWS V14.01,2013-04-18 12:07:00,
2013-04-18 08:12:00,51.3,49.6,30.27,NE,44,8.0,12.0,94,0.00,,---,0.00,VWS V14.01,2013-04-18 12:12:00,
2013-04-18 08:17:00,51.4,49.7,30.28,ESE,120,3.0,12.0,94,0.00,,---,0.00,VWS V14.01,2013-04-18 12:17:00,
2013-04-18 08:22:00,51.5,49.8,30.28,NNE,23,6.0,12.0,94,0.00,,---,0.00,VWS V14.01,2013-04-18 12:22:00,
2013-04-18 08:27:00,51.6,49.7,30.28,SE,127,4.0,12.0,93,0.00,,---,0.00,VWS V14.01,2013-04-18 12:27:00,
2013-04-18 08:32:00,51.6,49.7,30.28,East,94,6.0,7.0,93,0.00,,---,0.00,VWS V14.01,2013-04-18 12:32:00,
2013-04-18 08:37:00,51.6,49.4,30.28,NNE,20,2.0,8.0,92,0.00,,---,0.00,VWS V14.01,2013-04-18 12:37:00,
2013-04-18 08:42:00,51.7,49.2,30.28,SSW,194,4.0,8.0,91,0.00,,---,0.00,VWS V14.01,2013-04-18 12:42:00,
2013-04-18 08:47:00,51.8,49.3,30.28,NNE,24,6.0,8.0,91,0.00,,---,0.00,VWS V14.01,2013-04-18 12:47:00,
2013-04-18 08:52:00,51.9,49.1,30.28,NE,41,7.0,8.0,90,0.00,,---,0.00,VWS V14.01,2013-04-18 12:52:00,
2013-04-18 08:57:00,52.0,49.2,30.29,NE,45,3.0,8.0,90,0.00,,---,0.00,VWS V14.01,2013-04-18 12:57:00,
2013-04-18 09:02:00,52.2,49.4,30.29,NNE,26,4.0,6.0,90,0.00,,---,0.00,VWS V14.01,2013-04-18 13:02:00,
2013-04-18 09:07:00,52.5,49.4,30.29,ESE,110,3.0,6.0,89,0.00,,---,0.00,VWS V14.01,2013-04-18 13:07:00,
2013-04-18 09:12:00,53.0,49.5,30.29,ENE,61,6.0,8.0,88,0.00,,---,0.00,VWS V14.01,2013-04-18 13:12:00,
2013-04-18 09:17:00,53.4,49.9,30.29,ENE,60,4.0,8.0,88,0.00,,---,0.00,VWS V14.01,2013-04-18 13:17:00,
2013-04-18 09:22:00,53.6,49.8,30.29,East,101,5.0,8.0,87,0.00,,---,0.00,VWS V14.01,2013-04-18 13:22:00,
2013-04-18 09:27:00,53.5,49.4,30.29,NNE,29,4.0,8.0,86,0.00,,---,0.00,VWS V14.01,2013-04-18 13:27:00,
2013-04-18 09:33:00,53.4,49.6,30.29,ENE,65,4.0,6.0,87,0.00,,---,0.00,VWS V14.01,2013-04-18 13:33:00,
2013-04-18 09:38:00,53.0,48.9,30.30,NE,45,5.0,7.0,86,0.00,,---,0.00,VWS V14.01,2013-04-18 13:38:00,
2013-04-18 09:43:00,52.8,49.0,30.30,North,2,5.0,7.0,87,0.00,,---,0.00,VWS V14.01,2013-04-18 13:43:00,
2013-04-18 09:47:00,52.6,48.8,30.30,ENE,70,7.0,7.0,87,0.00,,---,0.00,VWS V14.01,2013-04-18 13:47:00,
2013-04-18 09:53:00,52.2,48.8,30.30,NE,55,5.0,7.0,88,0.00,,---,0.00,VWS V14.01,2013-04-18 13:53:00,
2013-04-18 09:58:00,52.0,48.6,30.29,NE,53,7.0,8.0,88,0.00,,---,0.00,VWS V14.01,2013-04-18 13:58:00,
2013-04-18 10:03:00,51.8,48.7,30.29,ENE,58,6.0,8.0,89,0.00,,---,0.00,VWS V14.01,2013-04-18 14:03:00,
2013-04-18 10:08:00,51.7,48.6,30.30,NE,56,7.0,8.0,89,0.00,,---,0.00,VWS V14.01,2013-04-18 14:08:00,
2013-04-18 10:13:00,51.5,48.7,30.30,NE,54,7.0,8.0,90,0.00,,---,0.00,VWS V14.01,2013-04-18 14:13:00,
2013-04-18 10:18:00,51.6,48.8,30.30,ENE,57,5.0,8.0,90,0.00,,---,0.00,VWS V14.01,2013-04-18 14:18:00,
2013-04-18 10:23:00,51.7,48.9,30.31,ENE,66,6.0,8.0,90,0.00,,---,0.00,VWS V14.01,2013-04-18 14:23:00,
2013-04-18 10:28:00,51.8,49.0,30.31,ENE,58,7.0,8.0,90,0.00,,---,0.00,VWS V14.01,2013-04-18 14:28:00,
2013-04-18 10:33:00,51.7,48.9,30.31,NE,51,8.0,8.0,90,0.00,,---,0.00,VWS V14.01,2013-04-18 14:33:00,
2013-04-18 10:38:00,51.9,49.1,30.31,NE,49,7.0,8.0,90,0.00,,---,0.00,VWS V14.01,2013-04-18 14:38:00,
2013-04-18 10:43:00,52.3,49.2,30.30,NE,55,6.0,8.0,89,0.00,,---,0.00,VWS V14.01,2013-04-18 14:43:00,
2013-04-18 10:48:00,52.8,49.3,30.30,ENE,60,6.0,10.0,88,0.00,,---,0.00,VWS V14.01,2013-04-18 14:48:00,
2013-04-18 10:53:00,53.2,49.7,30.30,ENE,68,6.0,10.0,88,0.00,,---,0.00,VWS V14.01,2013-04-18 14:53:00,
2013-04-18 10:58:00,53.2,49.4,30.30,NNE,13,7.0,10.0,87,0.00,,---,0.00,VWS V14.01,2013-04-18 14:58:00,
2013-04-18 11:03:00,53.0,49.5,30.30,ENE,70,4.0,8.0,88,0.00,,---,0.00,VWS V14.01,2013-04-18 15:03:00,
2013-04-18 11:08:00,53.2,49.7,30.30,NE,54,5.0,8.0,88,0.00,,---,0.00,VWS V14.01,2013-04-18 15:08:00,
2013-04-18 11:13:00,53.2,49.7,30.30,East,97,7.0,10.0,88,0.00,,---,0.00,VWS V14.01,2013-04-18 15:13:00,
2013-04-18 11:18:00,52.9,49.5,30.30,ENE,58,6.0,10.0,88,0.00,,---,0.00,VWS V14.01,2013-04-18 15:18:00,
2013-04-18 11:23:00,52.9,49.5,30.29,NNE,12,8.0,10.0,88,0.00,,---,0.00,VWS V14.01,2013-04-18 15:23:00,
2013-04-18 11:28:00,52.8,49.3,30.29,NNE,30,5.0,11.0,88,0.00,,---,0.00,VWS V14.01,2013-04-18 15:28:00,
2013-04-18 11:33:00,53.1,49.7,30.29,NE,41,7.0,8.0,88,0.00,,---,0.00,VWS V14.01,2013-04-18 15:33:00,
2013-04-18 11:38:00,53.3,49.8,30.29,NNE,28,4.0,9.0,88,0.00,,---,0.00,VWS V14.01,2013-04-18 15:38:00,
2013-04-18 11:43:00,53.5,50.0,30.29,ENE,66,4.0,9.0,88,0.00,,---,0.00,VWS V14.01,2013-04-18 15:43:00,
2013-04-18 11:48:00,53.7,49.9,30.29,NE,43,3.0,9.0,87,0.00,,---,0.00,VWS V14.01,2013-04-18 15:48:00,
2013-04-18 11:53:00,53.8,49.7,30.29,SE,142,4.0,9.0,86,0.00,,---,0.00,VWS V14.01,2013-04-18 15:53:00,
2013-04-18 11:58:00,53.9,50.1,30.29,NE,42,4.0,9.0,87,0.00,,---,0.00,VWS V14.01,2013-04-18 15:58:00,
2013-04-18 12:03:00,53.9,50.1,30.29,NE,38,5.0,8.0,87,0.00,,---,0.00,VWS V14.01,2013-04-18 16:03:00,
2013-04-18 12:08:00,54.3,50.5,30.28,NE,56,6.0,8.0,87,0.00,,---,0.00,VWS V14.01,2013-04-18 16:08:00,
2013-04-18 12:13:00,54.9,50.2,30.28,East,79,6.0,8.0,84,0.00,,---,0.00,VWS V14.01,2013-04-18 16:13:00,
2013-04-18 12:18:00,54.7,50.0,30.28,ESE,120,5.0,8.0,84,0.00,,---,0.00,VWS V14.01,2013-04-18 16:18:00,
2013-04-18 12:23:00,54.9,50.2,30.28,North,8,3.0,8.0,84,0.00,,---,0.00,VWS V14.01,2013-04-18 16:23:00,
2013-04-18 12:28:00,54.9,50.2,30.27,North,354,4.0,8.0,84,0.00,,---,0.00,VWS V14.01,2013-04-18 16:28:00,
2013-04-18 12:33:00,54.4,49.7,30.27,NE,53,5.0,6.0,84,0.00,,---,0.00,VWS V14.01,2013-04-18 16:33:00,
2013-04-18 12:38:00,54.1,49.7,30.27,NNE,33,2.0,6.0,85,0.00,,---,0.00,VWS V14.01,2013-04-18 16:38:00,
2013-04-18 12:43:00,54.3,50.2,30.26,NE,35,6.0,6.0,86,0.00,,---,0.00,VWS V14.01,2013-04-18 16:43:00,
2013-04-18 12:48:00,54.4,50.0,30.26,NNE,30,4.0,8.0,85,0.00,,---,0.00,VWS V14.01,2013-04-18 16:48:00,
2013-04-18 12:53:00,54.2,49.8,30.26,East,99,5.0,8.0,85,0.00,,---,0.00,VWS V14.01,2013-04-18 16:53:00,
2013-04-18 12:58:00,54.1,50.0,30.26,North,10,4.0,8.0,86,0.00,,---,0.00,VWS V14.01,2013-04-18 16:58:00,
2013-04-18 13:03:00,53.9,49.8,30.26,NNE,18,4.0,6.0,86,0.00,,---,0.00,VWS V14.01,2013-04-18 17:03:00,
2013-04-18 13:08:00,54.2,50.1,30.26,NNE,12,4.0,6.0,86,0.00,,---,0.00,VWS V14.01,2013-04-18 17:08:00,
2013-04-18 13:13:00,54.2,50.1,30.25,East,91,4.0,7.0,86,0.00,,---,0.00,VWS V14.01,2013-04-18 17:13:00,
2013-04-18 13:18:00,54.4,50.0,30.25,ENE,63,6.0,8.0,85,0.00,,---,0.00,VWS V14.01,2013-04-18 17:18:00,
2013-04-18 13:23:00,54.3,50.2,30.25,NE,52,3.0,8.0,86,0.00,,---,0.00,VWS V14.01,2013-04-18 17:23:00,
2013-04-18 13:28:00,54.3,50.2,30.25,ENE,63,4.0,8.0,86,0.00,,---,0.00,VWS V14.01,2013-04-18 17:28:00,
2013-04-18 13:33:00,54.4,50.0,30.25,NE,37,5.0,7.0,85,0.00,,---,0.00,VWS V14.01,2013-04-18 17:33:00,
2013-04-18 13:38:00,54.5,50.1,30.25,NE,40,5.0,7.0,85,0.00,,---,0.00,VWS V14.01,2013-04-18 17:38:00,
2013-04-18 13:43:00,54.8,50.4,30.24,ENE,68,7.0,8.0,85,0.00,,---,0.00,VWS V14.01,2013-04-18 17:43:00,
2013-04-18 13:48:00,54.9,50.5,30.24,NE,39,6.0,9.0,85,0.00,,---,0.00,VWS V14.01,2013-04-18 17:48:00,
2013-04-18 13:53:00,55.0,50.6,30.25,East,98,6.0,9.0,85,0.00,,---,0.00,VWS V14.01,2013-04-18 17:53:00,
2013-04-18 13:58:00,55.0,50.6,30.25,NE,34,6.0,9.0,85,0.00,,---,0.00,VWS V14.01,2013-04-18 17:58:00,
2013-04-18 14:03:00,54.9,50.5,30.24,NE,40,5.0,6.0,85,0.00,,---,0.00,VWS V14.01,2013-04-18 18:03:00,
2013-04-18 14:08:00,55.0,50.6,30.24,NNE,32,3.0,6.0,85,0.00,,---,0.00,VWS V14.01,2013-04-18 18:08:00,
2013-04-18 14:13:00,54.9,50.5,30.24,NE,46,6.0,7.0,85,0.00,,---,0.00,VWS V14.01,2013-04-18 18:13:00,
2013-04-18 14:18:00,54.9,50.5,30.24,ENE,76,3.0,7.0,85,0.00,,---,0.00,VWS V14.01,2013-04-18 18:18:00,
2013-04-18 14:23:00,55.2,51.1,30.24,ENE,67,7.0,8.0,86,0.00,,---,0.00,VWS V14.01,2013-04-18 18:23:00,
2013-04-18 14:28:00,55.4,51.0,30.24,SSE,164,2.0,8.0,85,0.00,,---,0.00,VWS V14.01,2013-04-18 18:28:00,
2013-04-18 14:33:00,55.6,51.2,30.23,NE,40,7.0,7.0,85,0.00,,---,0.00,VWS V14.01,2013-04-18 18:33:00,
2013-04-18 14:38:00,55.7,51.3,30.23,ENE,73,7.0,7.0,85,0.00,,---,0.00,VWS V14.01,2013-04-18 18:38:00,
2013-04-18 14:43:00,56.0,51.6,30.23,NNE,32,5.0,7.0,85,0.00,,---,0.00,VWS V14.01,2013-04-18 18:43:00,
2013-04-18 14:48:00,56.1,51.3,30.23,South,191,4.0,7.0,84,0.00,,---,0.00,VWS V14.01,2013-04-18 18:48:00,
2013-04-18 14:53:00,56.2,51.4,30.22,SSE,149,5.0,8.0,84,0.00,,---,0.00,VWS V14.01,2013-04-18 18:53:00,
2013-04-18 14:58:00,56.2,51.8,30.22,NNW,348,2.0,8.0,85,0.00,,---,0.00,VWS V14.01,2013-04-18 18:58:00,
2013-04-18 15:03:00,56.3,51.9,30.22,NNE,23,6.0,7.0,85,0.00,,---,0.00,VWS V14.01,2013-04-18 19:03:00,
2013-04-18 15:08:00,56.1,51.7,30.22,SE,135,4.0,8.0,85,0.00,,---,0.00,VWS V14.01,2013-04-18 19:08:00,
2013-04-18 15:13:00,56.0,51.9,30.21,East,87,5.0,8.0,86,0.00,,---,0.00,VWS V14.01,2013-04-18 19:13:00,
2013-04-18 15:18:00,55.8,51.7,30.21,East,80,6.0,9.0,86,0.00,,---,0.00,VWS V14.01,2013-04-18 19:18:00,
2013-04-18 15:23:00,55.8,52.0,30.21,NNW,334,3.0,9.0,87,0.00,,---,0.00,VWS V14.01,2013-04-18 19:23:00,
2013-04-18 15:28:00,55.7,51.9,30.21,NE,49,5.0,9.0,87,0.00,,---,0.00,VWS V14.01,2013-04-18 19:28:00,
2013-04-18 15:33:00,55.6,51.8,30.20,SW,219,6.0,9.0,87,0.00,,---,0.00,VWS V14.01,2013-04-18 19:33:00,
2013-04-18 15:38:00,55.7,51.9,30.21,East,101,3.0,9.0,87,0.00,,---,0.00,VWS V14.01,2013-04-18 19:38:00,
2013-04-18 15:43:00,56.0,52.2,30.20,NE,47,3.0,9.0,87,0.00,,---,0.00,VWS V14.01,2013-04-18 19:43:00,
2013-04-18 15:48:00,56.1,52.3,30.20,SSW,212,3.0,9.0,87,0.00,,---,0.00,VWS V14.01,2013-04-18 19:48:00,
2013-04-18 15:53:00,56.3,52.5,30.20,NNE,25,2.0,9.0,87,0.00,,---,0.00,VWS V14.01,2013-04-18 19:53:00,
2013-04-18 15:58:00,56.7,52.6,30.20,ESE,108,2.0,9.0,86,0.00,,---,0.00,VWS V14.01,2013-04-18 19:58:00,
2013-04-18 16:03:00,56.9,52.8,30.20,East,96,3.0,6.0,86,0.00,,---,0.00,VWS V14.01,2013-04-18 20:03:00,
2013-04-18 16:08:00,57.0,52.9,30.20,NW,313,3.0,7.0,86,0.00,,---,0.00,VWS V14.01,2013-04-18 20:08:00,
2013-04-18 16:13:00,57.0,52.9,30.19,SE,141,3.0,7.0,86,0.00,,---,0.00,VWS V14.01,2013-04-18 20:13:00,
2013-04-18 16:18:00,56.9,53.1,30.19,NNE,15,5.0,8.0,87,0.00,,---,0.00,VWS V14.01,2013-04-18 20:18:00,
2013-04-18 16:23:00,56.9,53.1,30.19,South,188,3.0,11.0,87,0.00,,---,0.00,VWS V14.01,2013-04-18 20:23:00,
2013-04-18 16:28:00,56.8,53.0,30.19,SSE,164,5.0,11.0,87,0.00,,---,0.00,VWS V14.01,2013-04-18 20:28:00,
2013-04-18 16:33:00,56.8,53.0,30.18,East,100,4.0,9.0,87,0.00,,---,0.00,VWS V14.01,2013-04-18 20:33:00,
2013-04-18 16:38:00,56.6,53.1,30.18,North,349,3.0,9.0,88,0.00,,---,0.00,VWS V14.01,2013-04-18 20:38:00,
2013-04-18 16:43:00,56.5,53.0,30.18,West,268,3.0,10.0,88,0.00,,---,0.00,VWS V14.01,2013-04-18 20:43:00,
2013-04-18 16:48:00,56.4,52.9,30.18,NW,321,5.0,11.0,88,0.00,,---,0.00,VWS V14.01,2013-04-18 20:48:00,
2013-04-18 16:53:00,56.3,53.1,30.18,SE,125,5.0,14.0,89,0.00,,---,0.00,VWS V14.01,2013-04-18 20:53:00,
2013-04-18 16:58:00,56.0,52.8,30.18,West,271,3.0,14.0,89,0.00,,---,0.00,VWS V14.01,2013-04-18 20:58:00,
2013-04-18 17:03:00,55.6,52.4,30.18,SW,231,4.0,11.0,89,0.00,,---,0.00,VWS V14.01,2013-04-18 21:03:00,
2013-04-18 17:08:00,55.3,52.4,30.18,ESE,106,7.0,11.0,90,0.00,,---,0.00,VWS V14.01,2013-04-18 21:08:00,
2013-04-18 17:13:00,55.2,52.6,30.18,NNE,28,1.0,14.0,91,0.00,,---,0.00,VWS V14.01,2013-04-18 21:13:00,
2013-04-18 17:18:00,55.0,52.4,30.18,SSW,205,4.0,14.0,91,0.00,,---,0.00,VWS V14.01,2013-04-18 21:18:00,
2013-04-18 17:24:00,54.9,52.6,30.18,East,86,6.0,14.0,92,0.00,,---,0.00,VWS V14.01,2013-04-18 21:24:00,
2013-04-18 17:29:00,55.0,52.7,30.17,NNW,332,4.0,14.0,92,0.00,,---,0.00,VWS V14.01,2013-04-18 21:29:00,
2013-04-18 17:34:00,55.2,52.9,30.18,SSE,165,4.0,11.0,92,0.00,,---,0.00,VWS V14.01,2013-04-18 21:34:00,
2013-04-18 17:39:00,55.1,52.8,30.17,SE,139,5.0,11.0,92,0.00,,---,0.00,VWS V14.01,2013-04-18 21:39:00,
2013-04-18 17:44:00,54.9,52.6,30.17,NW,323,3.0,12.0,92,0.00,,---,0.00,VWS V14.01,2013-04-18 21:44:00,
2013-04-18 17:49:00,55.1,52.8,30.17,East,94,5.0,12.0,92,0.00,,---,0.00,VWS V14.01,2013-04-18 21:49:00,
2013-04-18 17:54:00,55.2,52.9,30.17,ESE,102,6.0,12.0,92,0.00,,---,0.00,VWS V14.01,2013-04-18 21:54:00,
2013-04-18 17:59:00,55.0,52.7,30.17,SSE,148,5.0,12.0,92,0.00,,---,0.00,VWS V14.01,2013-04-18 21:59:00,
2013-04-18 18:04:00,54.6,52.3,30.17,South,175,4.0,10.0,92,0.00,,---,0.00,VWS V14.01,2013-04-18 22:04:00,
2013-04-18 18:09:00,54.4,52.4,30.16,West,260,2.0,10.0,93,0.00,,---,0.00,VWS V14.01,2013-04-18 22:09:00,
2013-04-18 18:14:00,54.7,52.7,30.16,NNW,338,4.0,10.0,93,0.00,,---,0.00,VWS V14.01,2013-04-18 22:14:00,
2013-04-18 18:19:00,54.9,52.9,30.16,SE,139,4.0,10.0,93,0.00,,---,0.00,VWS V14.01,2013-04-18 22:19:00,
2013-04-18 18:24:00,54.8,52.5,30.16,NNE,12,5.0,10.0,92,0.00,,---,0.00,VWS V14.01,2013-04-18 22:24:00,
2013-04-18 18:29:00,54.7,52.4,30.15,WSW,238,3.0,11.0,92,0.00,,---,0.00,VWS V14.01,2013-04-18 22:29:00,
2013-04-18 18:34:00,54.7,52.7,30.15,ENE,61,5.0,11.0,93,0.00,,---,0.00,VWS V14.01,2013-04-18 22:34:00,
2013-04-18 18:39:00,54.6,52.6,30.15,SSE,156,5.0,11.0,93,0.00,,---,0.00,VWS V14.01,2013-04-18 22:39:00,
2013-04-18 18:44:00,54.6,52.6,30.15,North,356,3.0,11.0,93,0.00,,---,0.00,VWS V14.01,2013-04-18 22:44:00,
2013-04-18 18:49:00,54.5,52.5,30.15,NNW,345,3.0,12.0,93,0.00,,---,0.00,VWS V14.01,2013-04-18 22:49:00,
2013-04-18 18:54:00,54.4,52.7,30.15,ENE,77,9.0,12.0,94,0.00,,---,0.00,VWS V14.01,2013-04-18 22:54:00,
2013-04-18 18:59:00,54.4,52.7,30.15,East,100,5.0,12.0,94,0.00,,---,0.00,VWS V14.01,2013-04-18 22:59:00,
2013-04-18 19:04:00,54.4,52.7,30.14,North,10,7.0,10.0,94,0.00,,---,0.00,VWS V14.01,2013-04-18 23:04:00,
2013-04-18 19:09:00,54.2,52.5,30.15,SSE,149,7.0,10.0,94,0.00,,---,0.00,VWS V14.01,2013-04-18 23:09:00,
2013-04-18 19:14:00,54.1,52.7,30.14,SE,125,3.0,12.0,95,0.00,,---,0.00,VWS V14.01,2013-04-18 23:14:00,
2013-04-18 19:19:00,54.0,52.6,30.15,SE,141,9.0,15.0,95,0.00,,---,0.00,VWS V14.01,2013-04-18 23:19:00,
2013-04-18 19:24:00,53.9,52.5,30.15,WSW,239,12.0,16.0,95,0.00,,---,0.00,VWS V14.01,2013-04-18 23:24:00,
2013-04-18 19:29:00,53.9,52.8,30.15,SE,131,11.0,16.0,96,0.00,,---,0.00,VWS V14.01,2013-04-18 23:29:00,
2013-04-18 19:34:00,53.9,52.8,30.15,SSE,150,8.0,14.0,96,0.00,,---,0.00,VWS V14.01,2013-04-18 23:34:00,
2013-04-18 19:39:00,53.7,52.6,30.15,South,174,9.0,14.0,96,0.00,,---,0.00,VWS V14.01,2013-04-18 23:39:00,
2013-04-18 19:44:00,53.7,52.6,30.15,SSE,148,12.0,16.0,96,0.00,,---,0.00,VWS V14.01,2013-04-18 23:44:00,
2013-04-18 19:49:00,53.5,52.4,30.15,ESE,122,12.0,16.0,96,0.00,,---,0.00,VWS V14.01,2013-04-18 23:49:00,
2013-04-18 19:54:00,53.6,52.8,30.15,SE,143,11.0,16.0,97,0.00,,---,0.00,VWS V14.01,2013-04-18 23:54:00,
2013-04-18 19:59:00,53.4,52.6,30.15,SE,132,12.0,16.0,97,0.00,,---,0.00,VWS V14.01,2013-04-18 23:59:00,
2013-04-18 20:04:00,53.4,52.6,30.15,SE,139,10.0,14.0,97,0.00,,---,0.00,VWS V14.01,2013-04-19 00:04:00,
2013-04-18 20:09:00,53.3,52.5,30.15,SE,130,9.0,14.0,97,0.00,,---,0.00,VWS V14.01,2013-04-19 00:09:00,
2013-04-18 20:14:00,53.2,52.4,30.15,SE,129,11.0,14.0,97,0.00,,---,0.00,VWS V14.01,2013-04-19 00:14:00,
2013-04-18 20:19:00,53.2,52.4,30.15,SE,133,13.0,16.0,97,0.00,,---,0.00,VWS V14.01,2013-04-19 00:19:00,
2013-04-18 20:24:00,53.3,52.5,30.15,ESE,109,10.0,16.0,97,0.00,,---,0.00,VWS V14.01,2013-04-19 00:24:00,
2013-04-18 20:29:00,53.2,52.4,30.15,SE,136,9.0,16.0,97,0.00,,---,0.00,VWS V14.01,2013-04-19 00:29:00,
2013-04-18 20:34:00,53.1,52.3,30.15,SE,132,11.0,13.0,97,0.00,,---,0.00,VWS V14.01,2013-04-19 00:34:00,
2013-04-18 20:39:00,53.1,52.5,30.15,ESE,120,14.0,16.0,98,0.00,,---,0.00,VWS V14.01,2013-04-19 00:39:00,
2013-04-18 20:44:00,53.3,52.8,30.15,ESE,115,13.0,17.0,98,0.00,,---,0.00,VWS V14.01,2013-04-19 00:44:00,
2013-04-18 20:49:00,53.4,52.8,30.15,SE,144,14.0,17.0,98,0.00,,---,0.00,VWS V14.01,2013-04-19 00:49:00,
2013-04-18 20:54:00,53.5,53.0,30.15,SE,126,11.0,17.0,98,0.00,,---,0.00,VWS V14.01,2013-04-19 00:54:00,
2013-04-18 20:59:00,53.5,53.0,30.14,ESE,110,13.0,17.0,98,0.00,,---,0.00,VWS V14.01,2013-04-19 00:59:00,
2013-04-18 21:04:00,53.5,53.0,30.14,SSE,168,13.0,15.0,98,0.00,,---,0.00,VWS V14.01,2013-04-19 01:04:00,
2013-04-18 21:09:00,53.5,53.0,30.14,ESE,123,13.0,15.0,98,0.00,,---,0.00,VWS V14.01,2013-04-19 01:09:00,
2013-04-18 21:14:00,53.5,53.0,30.14,SE,124,11.0,15.0,98,0.00,,---,0.00,VWS V14.01,2013-04-19 01:14:00,
2013-04-18 21:19:00,53.5,53.0,30.14,ESE,122,11.0,15.0,98,0.00,,---,0.00,VWS V14.01,2013-04-19 01:19:00,
2013-04-18 21:24:00,53.4,52.8,30.14,East,82,11.0,15.0,98,0.00,,---,0.00,VWS V14.01,2013-04-19 01:24:00,
2013-04-18 21:29:00,53.4,52.8,30.14,ESE,116,10.0,15.0,98,0.00,,---,0.00,VWS V14.01,2013-04-19 01:29:00,
2013-04-18 21:34:00,53.4,52.8,30.14,South,174,12.0,14.0,98,0.00,,---,0.00,VWS V14.01,2013-04-19 01:34:00,
2013-04-18 21:39:00,53.3,52.8,30.14,SE,136,10.0,14.0,98,0.00,,---,0.00,VWS V14.01,2013-04-19 01:39:00,
2013-04-18 21:44:00,53.2,52.7,30.14,ESE,105,12.0,14.0,98,0.00,,---,0.00,VWS V14.01,2013-04-19 01:44:00,
2013-04-18 21:49:00,53.1,52.5,30.13,SE,140,11.0,14.0,98,0.00,,---,0.00,VWS V14.01,2013-04-19 01:49:00,
2013-04-18 21:54:00,53.1,52.5,30.13,East,100,10.0,14.0,98,0.00,,---,0.00,VWS V14.01,2013-04-19 01:54:00,
2013-04-18 21:59:00,53.0,52.5,30.12,SE,133,10.0,16.0,98,0.00,,---,0.00,VWS V14.01,2013-04-19 01:59:00,
2013-04-18 22:04:00,52.8,52.2,30.12,SSE,147,11.0,15.0,98,0.00,,---,0.00,VWS V14.01,2013-04-19 02:04:00,
2013-04-18 22:09:00,52.8,52.2,30.12,ESE,120,12.0,15.0,98,0.00,,---,0.00,VWS V14.01,2013-04-19 02:09:00,
2013-04-18 22:14:00,52.7,52.2,30.12,SE,134,10.0,15.0,98,0.00,,---,0.00,VWS V14.01,2013-04-19 02:14:00,
2013-04-18 22:19:00,52.6,52.0,30.12,SE,130,12.0,15.0,98,0.00,,---,0.00,VWS V14.01,2013-04-19 02:19:00,
2013-04-18 22:24:00,52.6,52.0,30.12,ESE,117,10.0,15.0,98,0.00,,---,0.00,VWS V14.01,2013-04-19 02:24:00,
2013-04-18 22:29:00,52.8,52.5,30.12,SE,146,10.0,15.0,99,0.00,,---,0.00,VWS V14.01,2013-04-19 02:29:00,
2013-04-18 22:34:00,52.8,52.5,30.11,SE,127,12.0,15.0,99,0.00,,---,0.00,VWS V14.01,2013-04-19 02:34:00,
2013-04-18 22:39:00,52.7,52.4,30.12,SE,140,9.0,15.0,99,0.00,,---,0.00,VWS V14.01,2013-04-19 02:39:00,
2013-04-18 22:44:00,52.6,52.3,30.11,ESE,121,10.0,15.0,99,0.00,,---,0.00,VWS V14.01,2013-04-19 02:44:00,
2013-04-18 22:49:00,52.6,52.3,30.11,SE,133,11.0,15.0,99,0.00,,---,0.00,VWS V14.01,2013-04-19 02:49:00,
2013-04-18 22:54:00,52.5,52.2,30.11,SE,125,12.0,15.0,99,0.00,,---,0.00,VWS V14.01,2013-04-19 02:54:00,
2013-04-18 22:59:00,52.4,52.1,30.11,ESE,112,11.0,15.0,99,0.00,,---,0.00,VWS V14.01,2013-04-19 02:59:00,
2013-04-18 23:04:00,52.4,52.1,30.10,SE,139,9.0,13.0,99,0.00,,---,0.00,VWS V14.01,2013-04-19 03:04:00,
2013-04-18 23:09:00,52.4,52.1,30.10,ESE,119,13.0,13.0,99,0.00,,---,0.00,VWS V14.01,2013-04-19 03:09:00,
2013-04-18 23:14:00,52.5,52.2,30.10,ESE,115,10.0,13.0,99,0.00,,---,0.00,VWS V14.01,2013-04-19 03:14:00,
2013-04-18 23:19:00,52.6,52.3,30.10,SE,143,11.0,14.0,99,0.00,,---,0.00,VWS V14.01,2013-04-19 03:19:00,
2013-04-18 23:24:00,52.6,52.3,30.10,ESE,113,11.0,14.0,99,0.00,,---,0.00,VWS V14.01,2013-04-19 03:24:00,
2013-04-18 23:29:00,52.7,52.4,30.10,East,85,9.0,14.0,99,0.00,,---,0.00,VWS V14.01,2013-04-19 03:29:00,
2013-04-18 23:34:00,52.6,52.3,30.10,ESE,122,9.0,12.0,99,0.00,,---,0.00,VWS V14.01,2013-04-19 03:34:00,
2013-04-18 23:39:00,52.5,52.2,30.10,SE,125,13.0,14.0,99,0.00,,---,0.00,VWS V14.01,2013-04-19 03:39:00,
2013-04-18 23:44:00,52.6,52.3,30.09,ESE,119,12.0,14.0,99,0.00,,---,0.00,VWS V14.01,2013-04-19 03:44:00,
2013-04-18 23:49:00,52.6,52.3,30.09,ESE,111,12.0,15.0,99,0.00,,---,0.00,VWS V14.01,2013-04-19 03:49:00,
2013-04-18 23:54:00,52.8,52.5,30.09,ESE,117,12.0,15.0,99,0.00,,---,0.00,VWS V14.01,2013-04-19 03:54:00,
2013-04-18 23:59:00,52.8,52.5,30.09,East,91,12.0,15.0,99,0.00,,---,0.00,VWS V14.01,2013-04-19 03:59:00,